Regional Weather Roundup
Issued by NWS

Home | Current Version | Previous Version | Graphics & Text | Print | Product List | Glossary On
Versions: 1 2 3 4 5 6 7 8 9 10 11 12 13 14 15 16 17 18 19 20 21 22 23 24 25 26 27 28 29 30 31 32 33 34 35 36 37 38 39 40 41 42 43 44 45 46 47 48 49 50
000
ASUS43 KOAX 211310
RWRNE

WEATHER ROUNDUP FOR NEBRASKA
NATIONAL WEATHER SERVICE OMAHA NE
800 AM CDT MON AUG 21 2017

NOTES: SATELLITE DATA IS BEING USED TO AUGMENT CLOUD COVER ABOVE
       12000 FEET.
       "FAIR" INDICATES FEW OR NO CLOUDS BELOW 12,000 FEET WITH NO
       SIGNIFICANT WEATHER AND/OR OBSTRUCTIONS TO VISIBILITY.


NEZ001>004-019>022-054>056-211400-
NEBRASKA PANHANDLE

CITY           SKY/WX    TMP DP  RH WIND       PRES   REMARKS
SCOTTSBLUFF    FOG       64  63  96 W5        30.02R VSB<1/4
ALLIANCE       CLOUDY    67  66  97 W7        30.00S FOG
CHADRON        CLEAR     65  63  93 CALM      29.98R FOG
GORDON         CLOUDY    71  67  87 W8        29.99R
KIMBALL        CLEAR     63  61  94 NW9       30.08R
SIDNEY         FOG       62  62 100 W3        30.03R VSB<1/4
$$

NEZ057>060-069>072-079>082-211400-
SOUTHWEST NEBRASKA

CITY           SKY/WX    TMP DP  RH WIND       PRES   REMARKS
NORTH PLATTE   FOG       70  70 100 E8        29.96R VSB 3/4
IMPERIAL       CLEAR     65  62  90 CALM      29.97R
LEXINGTON      MOSUNNY   69  66  91 S5        29.96S
MCCOOK         PTSUNNY   67  65  93 S6        29.97R
OGALLALA       FOG       70  69  96 CALM      29.97R VSB<1/4
$$

NEZ005>010-023>029-035>040-094-211400-
NORTH CENTRAL NEBRASKA

CITY           SKY/WX    TMP DP  RH WIND       PRES   REMARKS
VALENTINE      CLOUDY    68  65  90 NE6       29.97R FOG
AINSWORTH      FOG       68  68 100 SE10      29.96S VSB 3/4
BROKEN BOW     FOG       70  69  97 N5        29.96S VSB 3/4
O`NEILL        CLOUDY    70  70 100 SE9       29.96F FOG
ORD            FOG       70  68  93 E6        29.95R VSB 1/4
THEDFORD       FOG       69  69  98 E10       29.98S VSB 1
$$

NEZ041-046>049-061>064-073>077-083>087-211400-
SOUTH CENTRAL NEBRASKA

CITY           SKY/WX    TMP DP  RH WIND       PRES   REMARKS
GRAND ISLAND   MOSUNNY   70  70 100 CALM      29.96S
AURORA         PTSUNNY   69  69 100 E7        29.97R
HASTINGS       CLOUDY    73  67  81 S8        29.97R
HEBRON         CLOUDY    76  67  73 SW8       29.97S
HOLDREGE       CLOUDY    69  64  84 S9        29.97S
KEARNEY        PTSUNNY   69  66  90 S6        29.97R
YORK           MOSUNNY   73  72  94 E5        29.99R
$$

NEZ011>018-030>034-042>045-211400-
NORTHEAST NEBRASKA

CITY           SKY/WX    TMP DP  RH WIND       PRES   REMARKS
NORFOLK        CLOUDY    68  64  87 SE16      29.97S
ALBION         CLOUDY    71  70  97 SE10      29.97S FOG
BLAIR          TSTM      69  65  87 E15G23    30.03S
COLUMBUS       SUNNY     69  65  86 E14G20    29.99R
FREMONT        PTSUNNY   71  64  79 E14G21    30.02R
TEKAMAH        CLOUDY    71  62  73 SE16G25   30.00S
WAYNE          CLOUDY    69  66  91 SE10      29.99R
$$

NEZ050>053-065>068-078-088>093-211400-
SOUTHEAST NEBRASKA

CITY           SKY/WX    TMP DP  RH WIND       PRES   REMARKS
LINCOLN        MOSUNNY   71  66  84 E14       30.03R
OMAHA EPPLEY   CLOUDY    68  64  87 E28G40    30.02F THUNDER
BEATRICE       MOSUNNY   76  71  85 E8        30.02R
FALLS CITY     CLOUDY    74  72  93 E10       30.04R
NEBRASKA CITY  CLOUDY    70  70 100 E9G16     30.07R
PLATTSMOUTH    CLOUDY    68  65  92 E13G20    30.06S THUNDER
$$

NEZ044-045-051>053-067-211400-
OMAHA AREA

CITY           SKY/WX    TMP DP  RH WIND       PRES   REMARKS
OMAHA EPPLEY   CLOUDY    68  64  87 E28G40    30.02F THUNDER
BLAIR          TSTM      69  65  87 E15G23    30.03S
FREMONT        PTSUNNY   71  64  79 E14G21    30.02R
MILLARD        CLOUDY    69  67  93 E8        30.03R THUNDER
OFFUTT AFB     CLOUDY    68  65  91 E15       30.02F
PLATTSMOUTH    CLOUDY    68  65  92 E13G20    30.06S THUNDER
WAHOO          CLOUDY    69  67  94 SE12      30.02R
$$




USA.gov is the U.S. government's official web portal to all federal, state and local government web resources and services.